Year,Month,Day,Hour,Minute,Value (Times are PST for temperature in C)
2008,03,22,00,00,4.80
2008,03,22,00,01,4.80
2008,03,22,00,02,4.80
2008,03,22,00,03,4.80
2008,03,22,00,04,4.80
2008,03,22,00,05,4.80
2008,03,22,00,06,4.80
2008,03,22,00,07,4.80
2008,03,22,00,08,4.80
2008,03,22,00,09,4.80
2008,03,22,00,10,4.80
2008,03,22,00,11,4.80
2008,03,22,00,12,4.80
2008,03,22,00,13,4.80
2008,03,22,00,14,4.80
2008,03,22,00,15,4.80
2008,03,22,00,16,4.80
2008,03,22,00,17,4.80
2008,03,22,00,18,4.80
2008,03,22,00,19,4.80
2008,03,22,00,20,4.80
2008,03,22,00,21,4.80
2008,03,22,00,22,4.70
2008,03,22,00,23,4.70
2008,03,22,00,24,4.70
2008,03,22,00,25,4.70
2008,03,22,00,26,4.70
2008,03,22,00,27,4.70
2008,03,22,00,28,4.70
2008,03,22,00,29,4.70
2008,03,22,00,30,4.70
2008,03,22,00,31,4.60
2008,03,22,00,32,4.60
2008,03,22,00,33,4.60
2008,03,22,00,34,4.60
2008,03,22,00,35,4.50
2008,03,22,00,36,4.50
2008,03,22,00,37,4.40
2008,03,22,00,38,4.30
2008,03,22,00,39,4.20
2008,03,22,00,40,4.00
2008,03,22,00,41,3.80
2008,03,22,00,42,3.70
2008,03,22,00,43,3.60
2008,03,22,00,44,3.50
2008,03,22,00,45,3.40
2008,03,22,00,46,3.30
2008,03,22,00,47,3.20
2008,03,22,00,48,3.20
2008,03,22,00,49,3.20
2008,03,22,00,50,3.20
2008,03,22,00,51,3.20
2008,03,22,00,52,3.20
2008,03,22,00,53,3.30
2008,03,22,00,54,3.30
2008,03,22,00,55,3.30
2008,03,22,00,56,3.30
2008,03,22,00,57,3.30
2008,03,22,00,58,3.30
2008,03,22,00,59,3.30
2008,03,22,01,00,3.20
2008,03,22,01,01,3.20
2008,03,22,01,02,3.20
2008,03,22,01,03,3.20
2008,03,22,01,04,3.10
2008,03,22,01,05,3.10
2008,03,22,01,06,3.10
2008,03,22,01,07,3.10
2008,03,22,01,08,3.10
2008,03,22,01,09,3.10
2008,03,22,01,10,3.00
2008,03,22,01,11,3.00
2008,03,22,01,12,3.00
2008,03,22,01,13,2.90
2008,03,22,01,14,2.90
2008,03,22,01,15,2.90
2008,03,22,01,16,3.00
2008,03,22,01,17,3.00
2008,03,22,01,18,3.10
2008,03,22,01,19,3.10
2008,03,22,01,20,3.10
2008,03,22,01,21,3.10
2008,03,22,01,22,3.10
2008,03,22,01,23,3.10
2008,03,22,01,24,3.10
2008,03,22,01,25,3.10
2008,03,22,01,26,3.00
2008,03,22,01,27,3.00
2008,03,22,01,28,2.90
2008,03,22,01,29,2.90
2008,03,22,01,30,2.80
2008,03,22,01,31,2.80
2008,03,22,01,32,2.80
2008,03,22,01,33,2.70
2008,03,22,01,34,2.70
2008,03,22,01,35,2.70
2008,03,22,01,36,2.70
2008,03,22,01,37,2.70
2008,03,22,01,38,2.70
2008,03,22,01,39,2.70
2008,03,22,01,40,2.70
2008,03,22,01,41,2.70
2008,03,22,01,42,2.70
2008,03,22,01,43,2.70
2008,03,22,01,44,2.70
2008,03,22,01,45,2.70
2008,03,22,01,46,2.70
2008,03,22,01,47,2.70
2008,03,22,01,48,2.80
2008,03,22,01,49,2.80
2008,03,22,01,50,2.80
2008,03,22,01,51,2.80
2008,03,22,01,52,2.90
2008,03,22,01,53,2.90
2008,03,22,01,54,3.00
2008,03,22,01,55,3.00
2008,03,22,01,56,3.10
2008,03,22,01,57,3.10
2008,03,22,01,58,3.20
2008,03,22,01,59,3.20
2008,03,22,02,00,3.30
2008,03,22,02,01,3.30
2008,03,22,02,02,3.40
2008,03,22,02,03,3.40
2008,03,22,02,04,3.50
2008,03,22,02,05,3.50
2008,03,22,02,06,3.60
2008,03,22,02,07,3.60
2008,03,22,02,08,3.60
2008,03,22,02,09,3.60
2008,03,22,02,10,3.60
2008,03,22,02,11,3.70
2008,03,22,02,12,3.70
2008,03,22,02,13,3.60
2008,03,22,02,14,3.60
2008,03,22,02,15,3.60
2008,03,22,02,16,3.60
2008,03,22,02,17,3.60
2008,03,22,02,18,3.60
2008,03,22,02,19,3.60
2008,03,22,02,20,3.60
2008,03,22,02,21,3.60
2008,03,22,02,22,3.60
2008,03,22,02,23,3.60
2008,03,22,02,24,3.60
2008,03,22,02,25,3.60
2008,03,22,02,26,3.60
2008,03,22,02,27,3.60
2008,03,22,02,28,3.60
2008,03,22,02,29,3.60
2008,03,22,02,30,3.60
2008,03,22,02,31,3.60
2008,03,22,02,32,3.60
2008,03,22,02,33,3.60
2008,03,22,02,34,3.70
2008,03,22,02,35,3.70
2008,03,22,02,36,3.70
2008,03,22,02,37,3.70
2008,03,22,02,38,3.70
2008,03,22,02,39,3.70
2008,03,22,02,40,3.80
2008,03,22,02,41,3.80
2008,03,22,02,42,3.80
2008,03,22,02,43,3.80
2008,03,22,02,44,3.80
2008,03,22,02,45,3.80
2008,03,22,02,46,3.80
2008,03,22,02,47,3.80
2008,03,22,02,48,3.80
2008,03,22,02,49,3.70
2008,03,22,02,50,3.70
2008,03,22,02,51,3.70
2008,03,22,02,52,3.70
2008,03,22,02,53,3.70
2008,03,22,02,54,3.70
2008,03,22,02,55,3.70
2008,03,22,02,56,3.70
2008,03,22,02,57,3.80
2008,03,22,02,58,3.80
2008,03,22,02,59,3.80
2008,03,22,03,00,3.80
2008,03,22,03,01,3.80
2008,03,22,03,02,3.80
2008,03,22,03,03,3.80
2008,03,22,03,04,3.80
2008,03,22,03,05,3.80
2008,03,22,03,06,3.80
2008,03,22,03,07,3.80
2008,03,22,03,08,3.70
2008,03,22,03,09,3.70
2008,03,22,03,10,3.70
2008,03,22,03,11,3.70
2008,03,22,03,12,3.80
2008,03,22,03,13,3.80
2008,03,22,03,14,3.80
2008,03,22,03,15,3.80
2008,03,22,03,16,3.80
2008,03,22,03,17,3.80
2008,03,22,03,18,3.80
2008,03,22,03,19,3.80
2008,03,22,03,20,3.70
2008,03,22,03,21,3.70
2008,03,22,03,22,3.70
2008,03,22,03,23,3.70
2008,03,22,03,24,3.80
2008,03,22,03,25,3.80
2008,03,22,03,26,3.80
2008,03,22,03,27,3.80
2008,03,22,03,28,3.70
2008,03,22,03,29,3.70
2008,03,22,03,30,3.70
2008,03,22,03,31,3.70
2008,03,22,03,32,3.70
2008,03,22,03,33,3.70
2008,03,22,03,34,3.70
2008,03,22,03,35,3.70
2008,03,22,03,36,3.70
2008,03,22,03,37,3.70
2008,03,22,03,38,3.70
2008,03,22,03,39,3.80
2008,03,22,03,40,3.80
2008,03,22,03,41,3.80
2008,03,22,03,42,3.80
2008,03,22,03,43,3.80
2008,03,22,03,44,3.80
2008,03,22,03,45,3.80
2008,03,22,03,46,3.80
2008,03,22,03,47,3.80
2008,03,22,03,48,3.80
2008,03,22,03,49,3.80
2008,03,22,03,50,3.80
2008,03,22,03,51,3.80
2008,03,22,03,52,3.80
2008,03,22,03,53,3.80
2008,03,22,03,54,3.80
2008,03,22,03,55,3.80
2008,03,22,03,56,3.80
2008,03,22,03,57,3.80
2008,03,22,03,58,3.80
2008,03,22,03,59,3.80
2008,03,22,04,00,3.80
2008,03,22,04,01,3.80
2008,03,22,04,02,3.80
2008,03,22,04,03,3.80
2008,03,22,04,04,3.80
2008,03,22,04,05,3.80
2008,03,22,04,06,3.80
2008,03,22,04,07,3.80
2008,03,22,04,08,3.80
2008,03,22,04,09,3.80
2008,03,22,04,10,3.80
2008,03,22,04,11,3.80
2008,03,22,04,12,3.80
2008,03,22,04,13,3.80
2008,03,22,04,14,3.80
2008,03,22,04,15,3.80
2008,03,22,04,16,3.80
2008,03,22,04,17,3.80
2008,03,22,04,18,3.80
2008,03,22,04,19,3.80
2008,03,22,04,20,3.80
2008,03,22,04,21,3.80
2008,03,22,04,22,3.80
2008,03,22,04,23,3.80
2008,03,22,04,24,3.80
2008,03,22,04,25,3.80
2008,03,22,04,26,3.80
2008,03,22,04,27,3.80
2008,03,22,04,28,3.80
2008,03,22,04,29,3.80
2008,03,22,04,30,3.80
2008,03,22,04,31,3.80
2008,03,22,04,32,3.80
2008,03,22,04,33,3.80
2008,03,22,04,34,3.80
2008,03,22,04,35,3.80
2008,03,22,04,36,3.80
2008,03,22,04,37,3.80
2008,03,22,04,38,3.80
2008,03,22,04,39,3.80
2008,03,22,04,40,3.80
2008,03,22,04,41,3.80
2008,03,22,04,42,3.80
2008,03,22,04,43,3.80
2008,03,22,04,44,3.80
2008,03,22,04,45,3.80
2008,03,22,04,46,3.80
2008,03,22,04,47,3.80
2008,03,22,04,48,3.80
2008,03,22,04,49,3.80
2008,03,22,04,50,3.80
2008,03,22,04,51,3.80
2008,03,22,04,52,3.80
2008,03,22,04,53,3.80
2008,03,22,04,54,3.80
2008,03,22,04,55,3.80
2008,03,22,04,56,3.80
2008,03,22,04,57,3.80
2008,03,22,04,58,3.80
2008,03,22,04,59,3.80
2008,03,22,05,00,3.80
2008,03,22,05,01,3.80
2008,03,22,05,02,3.80
2008,03,22,05,03,3.80
2008,03,22,05,04,3.80
2008,03,22,05,05,3.80
2008,03,22,05,06,3.80
2008,03,22,05,07,3.80
2008,03,22,05,08,3.80
2008,03,22,05,09,3.80
2008,03,22,05,10,3.80
2008,03,22,05,11,3.80
2008,03,22,05,12,3.80
2008,03,22,05,13,3.80
2008,03,22,05,14,3.80
2008,03,22,05,15,3.80
2008,03,22,05,16,3.80
2008,03,22,05,17,3.80
2008,03,22,05,18,3.80
2008,03,22,05,19,3.80
2008,03,22,05,20,3.80
2008,03,22,05,21,3.80
2008,03,22,05,22,3.80
2008,03,22,05,23,3.80
2008,03,22,05,24,3.80
2008,03,22,05,25,3.80
2008,03,22,05,26,3.80
2008,03,22,05,27,3.80
2008,03,22,05,28,3.80
2008,03,22,05,29,3.80
2008,03,22,05,30,3.80
2008,03,22,05,31,3.80
2008,03,22,05,32,3.80
2008,03,22,05,33,3.80
2008,03,22,05,34,3.80
2008,03,22,05,35,3.80
2008,03,22,05,36,3.80
2008,03,22,05,37,3.80
2008,03,22,05,38,3.80
2008,03,22,05,39,3.80
2008,03,22,05,40,3.80
2008,03,22,05,41,3.80
2008,03,22,05,42,3.80
2008,03,22,05,43,3.80
2008,03,22,05,44,3.80
2008,03,22,05,45,3.80
2008,03,22,05,46,3.80
2008,03,22,05,47,3.80
2008,03,22,05,48,3.80
2008,03,22,05,49,3.80
2008,03,22,05,50,3.80
2008,03,22,05,51,3.80
2008,03,22,05,52,3.80
2008,03,22,05,53,3.80
2008,03,22,05,54,3.80
2008,03,22,05,55,3.80
2008,03,22,05,56,3.80
2008,03,22,05,57,3.80
2008,03,22,05,58,3.80
2008,03,22,05,59,3.80
2008,03,22,06,00,3.80
2008,03,22,06,01,3.80
2008,03,22,06,02,3.80
2008,03,22,06,03,3.80
2008,03,22,06,04,3.80
2008,03,22,06,05,3.80
2008,03,22,06,06,3.80
2008,03,22,06,07,3.80
2008,03,22,06,08,3.80
2008,03,22,06,09,3.80
2008,03,22,06,10,3.80
2008,03,22,06,11,3.80
2008,03,22,06,12,3.80
2008,03,22,06,13,3.80
2008,03,22,06,14,3.80
2008,03,22,06,15,3.80
2008,03,22,06,16,3.80
2008,03,22,06,17,3.80
2008,03,22,06,18,3.80
2008,03,22,06,19,3.80
2008,03,22,06,20,3.90
2008,03,22,06,21,3.90
2008,03,22,06,22,3.90
2008,03,22,06,23,3.90
2008,03,22,06,24,3.90
2008,03,22,06,25,3.90
2008,03,22,06,26,3.90
2008,03,22,06,27,3.90
2008,03,22,06,28,3.90
2008,03,22,06,29,3.90
2008,03,22,06,30,3.90
2008,03,22,06,31,3.90
2008,03,22,06,32,3.90
2008,03,22,06,33,3.90
2008,03,22,06,34,3.90
2008,03,22,06,35,3.90
2008,03,22,06,36,3.90
2008,03,22,06,37,3.90
2008,03,22,06,38,3.90
2008,03,22,06,39,3.90
2008,03,22,06,40,3.90
2008,03,22,06,41,3.90
2008,03,22,06,42,3.90
2008,03,22,06,43,3.90
2008,03,22,06,44,3.90
2008,03,22,06,45,3.90
2008,03,22,06,46,3.90
2008,03,22,06,47,3.90
2008,03,22,06,48,3.90
2008,03,22,06,49,3.90
2008,03,22,06,50,3.90
2008,03,22,06,51,3.90
2008,03,22,06,52,3.90
2008,03,22,06,53,3.90
2008,03,22,06,54,3.90
2008,03,22,06,55,3.80
2008,03,22,06,56,3.90
2008,03,22,06,57,3.90
2008,03,22,06,58,3.80
2008,03,22,06,59,3.80
2008,03,22,07,00,3.80
2008,03,22,07,01,3.90
2008,03,22,07,02,3.80
2008,03,22,07,03,3.90
2008,03,22,07,04,3.80
2008,03,22,07,05,3.80
2008,03,22,07,06,3.80
2008,03,22,07,07,3.80
2008,03,22,07,08,3.80
2008,03,22,07,09,3.80
2008,03,22,07,10,3.80
2008,03,22,07,11,3.80
2008,03,22,07,12,3.80
2008,03,22,07,13,3.80
2008,03,22,07,14,3.80
2008,03,22,07,15,3.80
2008,03,22,07,16,3.80
2008,03,22,07,17,3.80
2008,03,22,07,18,3.80
2008,03,22,07,19,3.80
2008,03,22,07,20,3.80
2008,03,22,07,21,3.80
2008,03,22,07,22,3.80
2008,03,22,07,23,3.80
2008,03,22,07,24,3.80
2008,03,22,07,25,3.80
2008,03,22,07,26,3.80
2008,03,22,07,27,3.80
2008,03,22,07,28,3.80
2008,03,22,07,29,3.80
2008,03,22,07,30,3.80
2008,03,22,07,31,3.80
2008,03,22,07,32,3.80
2008,03,22,07,33,3.80
2008,03,22,07,34,3.80
2008,03,22,07,35,3.80
2008,03,22,07,36,3.80
2008,03,22,07,37,3.80
2008,03,22,07,38,3.80
2008,03,22,07,39,3.80
2008,03,22,07,40,3.80
2008,03,22,07,41,3.80
2008,03,22,07,42,3.80
2008,03,22,07,43,3.80
2008,03,22,07,44,3.80
2008,03,22,07,45,3.80
2008,03,22,07,46,3.80
2008,03,22,07,47,3.80
2008,03,22,07,48,3.80
2008,03,22,07,49,3.80
2008,03,22,07,50,3.80
2008,03,22,07,51,3.80
2008,03,22,07,52,3.80
2008,03,22,07,53,3.80
2008,03,22,07,54,3.80
2008,03,22,07,55,3.80
2008,03,22,07,56,3.80
2008,03,22,07,57,3.80
2008,03,22,07,58,3.80
2008,03,22,07,59,3.80
2008,03,22,08,00,3.80
2008,03,22,08,01,3.80
2008,03,22,08,02,3.80
2008,03,22,08,03,3.80
2008,03,22,08,04,3.80
2008,03,22,08,05,3.80
2008,03,22,08,06,3.80
2008,03,22,08,07,3.80
2008,03,22,08,08,3.80
2008,03,22,08,09,3.90
2008,03,22,08,10,3.90
2008,03,22,08,11,3.90
2008,03,22,08,12,3.90
2008,03,22,08,13,3.90
2008,03,22,08,14,3.90
2008,03,22,08,15,3.90
2008,03,22,08,16,3.90
2008,03,22,08,17,3.90
2008,03,22,08,18,3.90
2008,03,22,08,19,3.90
2008,03,22,08,20,3.90
2008,03,22,08,21,3.90
2008,03,22,08,22,3.90
2008,03,22,08,23,3.90
2008,03,22,08,24,3.90
2008,03,22,08,25,3.90
2008,03,22,08,26,3.90
2008,03,22,08,27,3.90
2008,03,22,08,28,3.90
2008,03,22,08,29,3.90
2008,03,22,08,30,3.90
2008,03,22,08,31,3.90
2008,03,22,08,32,3.90
2008,03,22,08,33,3.90
2008,03,22,08,34,4.00
2008,03,22,08,35,4.00
2008,03,22,08,36,4.00
2008,03,22,08,37,4.00
2008,03,22,08,38,4.00
2008,03,22,08,39,4.00
2008,03,22,08,40,4.00
2008,03,22,08,41,4.00
2008,03,22,08,42,4.10
2008,03,22,08,43,4.10
2008,03,22,08,44,4.10
2008,03,22,08,45,4.10
2008,03,22,08,46,4.10
2008,03,22,08,47,4.10
2008,03,22,08,48,4.10
2008,03,22,08,49,4.10
2008,03,22,08,50,4.10
2008,03,22,08,51,4.10
2008,03,22,08,52,4.10
2008,03,22,08,53,4.10
2008,03,22,08,54,4.10
2008,03,22,08,55,4.10
2008,03,22,08,56,4.10
2008,03,22,08,57,4.20
2008,03,22,08,58,4.20
2008,03,22,08,59,4.20
2008,03,22,09,00,4.20
2008,03,22,09,01,4.20
2008,03,22,09,02,4.20
2008,03,22,09,03,4.20
2008,03,22,09,04,4.20
2008,03,22,09,05,4.20
2008,03,22,09,06,4.30
2008,03,22,09,07,4.30
2008,03,22,09,08,4.30
2008,03,22,09,09,4.30
2008,03,22,09,10,4.30
2008,03,22,09,11,4.30
2008,03,22,09,12,4.30
2008,03,22,09,13,4.30
2008,03,22,09,14,4.20
2008,03,22,09,15,4.30
2008,03,22,09,16,4.30
2008,03,22,09,17,4.30
2008,03,22,09,18,4.30
2008,03,22,09,19,4.40
2008,03,22,09,20,4.40
2008,03,22,09,21,4.40
2008,03,22,09,22,4.40
2008,03,22,09,23,4.40
2008,03,22,09,24,4.40
2008,03,22,09,25,4.40
2008,03,22,09,26,4.40
2008,03,22,09,27,4.40
2008,03,22,09,28,4.50
2008,03,22,09,29,4.50
2008,03,22,09,30,4.50
2008,03,22,09,31,4.50
2008,03,22,09,32,4.60
2008,03,22,09,33,4.60
2008,03,22,09,34,4.60
2008,03,22,09,35,4.60
2008,03,22,09,36,4.60
2008,03,22,09,37,4.50
2008,03,22,09,38,4.50
2008,03,22,09,39,4.50
2008,03,22,09,40,4.50
2008,03,22,09,41,4.50
2008,03,22,09,42,4.50
2008,03,22,09,43,4.50
2008,03,22,09,44,4.40
2008,03,22,09,45,4.40
2008,03,22,09,46,4.40
2008,03,22,09,47,4.40
2008,03,22,09,48,4.40
2008,03,22,09,49,4.40
2008,03,22,09,50,4.40
2008,03,22,09,51,4.50
2008,03,22,09,52,4.60
2008,03,22,09,53,4.60
2008,03,22,09,54,4.60
2008,03,22,09,55,4.50
2008,03,22,09,56,4.50
2008,03,22,09,57,4.50
2008,03,22,09,58,4.50
2008,03,22,09,59,4.50
2008,03,22,10,00,4.60
2008,03,22,10,01,4.60
2008,03,22,10,02,4.60
2008,03,22,10,03,4.60
2008,03,22,10,04,4.60
2008,03,22,10,05,4.60
2008,03,22,10,06,4.70
2008,03,22,10,07,4.70
2008,03,22,10,08,4.70
2008,03,22,10,09,4.70
2008,03,22,10,10,4.80
2008,03,22,10,11,4.80
2008,03,22,10,12,4.80
2008,03,22,10,13,4.80
2008,03,22,10,14,4.80
2008,03,22,10,15,4.80
2008,03,22,10,16,4.90
2008,03,22,10,17,4.90
2008,03,22,10,18,4.90
2008,03,22,10,19,4.90
2008,03,22,10,20,4.90
2008,03,22,10,21,4.80
2008,03,22,10,22,4.80
2008,03,22,10,23,4.90
2008,03,22,10,24,4.90
2008,03,22,10,25,4.90
2008,03,22,10,26,5.00
2008,03,22,10,27,5.00
2008,03,22,10,28,5.10
2008,03,22,10,29,5.10
2008,03,22,10,30,5.10
2008,03,22,10,31,5.10
2008,03,22,10,32,5.20
2008,03,22,10,33,5.20
2008,03,22,10,34,5.20
2008,03,22,10,35,5.20
2008,03,22,10,36,5.30
2008,03,22,10,37,5.20
2008,03,22,10,38,5.20
2008,03,22,10,39,5.20
2008,03,22,10,40,5.20
2008,03,22,10,41,5.20
2008,03,22,10,42,5.30
2008,03,22,10,43,5.30
2008,03,22,10,44,5.30
2008,03,22,10,45,5.40
2008,03,22,10,46,5.40
2008,03,22,10,47,5.40
2008,03,22,10,48,5.40
2008,03,22,10,49,5.40
2008,03,22,10,50,5.40
2008,03,22,10,51,5.40
2008,03,22,10,52,5.50
2008,03,22,10,53,5.50
2008,03,22,10,54,5.60
2008,03,22,10,55,5.60
2008,03,22,10,56,5.60
2008,03,22,10,57,5.70
2008,03,22,10,58,5.70
2008,03,22,10,59,5.80
2008,03,22,11,00,5.80
2008,03,22,11,01,5.80
2008,03,22,11,02,5.80
2008,03,22,11,03,5.80
2008,03,22,11,04,5.80
2008,03,22,11,05,5.90
2008,03,22,11,06,5.90
2008,03,22,11,07,6.00
2008,03,22,11,08,5.90
2008,03,22,11,09,5.90
2008,03,22,11,10,5.90
2008,03,22,11,11,5.80
2008,03,22,11,12,5.80
2008,03,22,11,13,5.80
2008,03,22,11,14,5.90
2008,03,22,11,15,5.90
2008,03,22,11,16,5.90
2008,03,22,11,17,5.90
2008,03,22,11,18,5.80
2008,03,22,11,19,5.80
2008,03,22,11,20,5.80
2008,03,22,11,21,5.80
2008,03,22,11,22,5.80
2008,03,22,11,23,5.80
2008,03,22,11,24,5.80
2008,03,22,11,25,5.90
2008,03,22,11,26,5.90
2008,03,22,11,27,5.90
2008,03,22,11,28,6.00
2008,03,22,11,29,6.00
2008,03,22,11,30,6.10
2008,03,22,11,31,6.20
2008,03,22,11,32,6.30
2008,03,22,11,33,6.20
2008,03,22,11,34,6.20
2008,03,22,11,35,6.10
2008,03,22,11,36,6.10
2008,03,22,11,37,6.20
2008,03,22,11,38,6.20
2008,03,22,11,39,6.20
2008,03,22,11,40,6.20
2008,03,22,11,41,6.20
2008,03,22,11,42,6.30
2008,03,22,11,43,6.30
2008,03,22,11,44,6.30
2008,03,22,11,45,6.40
2008,03,22,11,46,6.40
2008,03,22,11,47,6.40
2008,03,22,11,48,6.40
2008,03,22,11,49,6.50
2008,03,22,11,50,6.50
2008,03,22,11,51,6.50
2008,03,22,11,52,6.40
2008,03,22,11,53,6.30
2008,03,22,11,54,6.40
2008,03,22,11,55,6.40
2008,03,22,11,56,6.50
2008,03,22,11,57,6.50
2008,03,22,11,58,6.60
2008,03,22,11,59,6.60
2008,03,22,12,00,6.60
2008,03,22,12,01,6.50
2008,03,22,12,02,6.50
2008,03,22,12,03,6.60
2008,03,22,12,04,6.70
2008,03,22,12,05,6.70
2008,03,22,12,06,6.70
2008,03,22,12,07,6.70
2008,03,22,12,08,6.80
2008,03,22,12,09,6.80
2008,03,22,12,10,6.80
2008,03,22,12,11,6.80
2008,03,22,12,12,6.70
2008,03,22,12,13,6.70
2008,03,22,12,14,6.60
2008,03,22,12,15,6.50
2008,03,22,12,16,6.40
2008,03,22,12,17,6.50
2008,03,22,12,18,6.50
2008,03,22,12,19,6.60
2008,03,22,12,20,6.60
2008,03,22,12,21,6.60
2008,03,22,12,22,6.60
2008,03,22,12,23,6.60
2008,03,22,12,24,6.50
2008,03,22,12,25,6.50
2008,03,22,12,26,6.60
2008,03,22,12,27,6.60
2008,03,22,12,28,6.70
2008,03,22,12,29,6.80
2008,03,22,12,30,6.80
2008,03,22,12,31,6.90
2008,03,22,12,32,6.90
2008,03,22,12,33,6.80
2008,03,22,12,34,6.90
2008,03,22,12,35,6.90
2008,03,22,12,36,7.00
2008,03,22,12,37,7.00
2008,03,22,12,38,7.00
2008,03,22,12,39,7.10
2008,03,22,12,40,7.10
2008,03,22,12,41,7.00
2008,03,22,12,42,6.90
2008,03,22,12,43,6.80
2008,03,22,12,44,6.80
2008,03,22,12,45,6.80
2008,03,22,12,46,6.80
2008,03,22,12,47,6.80
2008,03,22,12,48,6.80
2008,03,22,12,49,6.80
2008,03,22,12,50,6.80
2008,03,22,12,51,6.80
2008,03,22,12,52,6.80
2008,03,22,12,53,6.70
2008,03,22,12,54,6.70
2008,03,22,12,55,6.80
2008,03,22,12,56,6.90
2008,03,22,12,57,6.90
2008,03,22,12,58,6.90
2008,03,22,12,59,7.00
2008,03,22,13,00,7.10
2008,03,22,13,01,7.10
2008,03,22,13,02,7.20
2008,03,22,13,03,7.20
2008,03,22,13,04,7.10
2008,03,22,13,05,7.10
2008,03,22,13,06,7.10
2008,03,22,13,07,7.10
2008,03,22,13,08,7.10
2008,03,22,13,09,7.10
2008,03,22,13,10,7.10
2008,03,22,13,11,7.10
2008,03,22,13,12,7.20
2008,03,22,13,13,7.20
2008,03,22,13,14,7.30
2008,03,22,13,15,7.20
2008,03,22,13,16,7.20
2008,03,22,13,17,7.20
2008,03,22,13,18,7.30
2008,03,22,13,19,7.30
2008,03,22,13,20,7.30
2008,03,22,13,21,7.20
2008,03,22,13,22,7.20
2008,03,22,13,23,7.10
2008,03,22,13,24,7.10
2008,03,22,13,25,7.10
2008,03,22,13,26,7.10
2008,03,22,13,27,7.20
2008,03,22,13,28,7.30
2008,03,22,13,29,7.30
2008,03,22,13,30,7.30
2008,03,22,13,31,7.30
2008,03,22,13,32,7.40
2008,03,22,13,33,7.40
2008,03,22,13,34,7.20
2008,03,22,13,35,7.20
2008,03,22,13,36,7.20
2008,03,22,13,37,7.20
2008,03,22,13,38,7.20
2008,03,22,13,39,7.20
2008,03,22,13,40,7.20
2008,03,22,13,41,7.20
2008,03,22,13,42,7.20
2008,03,22,13,43,7.20
2008,03,22,13,44,7.30
2008,03,22,13,45,7.30
2008,03,22,13,46,7.30
2008,03,22,13,47,7.20
2008,03,22,13,48,7.20
2008,03,22,13,49,7.30
2008,03,22,13,50,7.30
2008,03,22,13,51,7.30
2008,03,22,13,52,7.30
2008,03,22,13,53,7.20
2008,03,22,13,54,7.30
2008,03,22,13,55,7.30
2008,03,22,13,56,7.40
2008,03,22,13,57,7.40
2008,03,22,13,58,7.50
2008,03,22,13,59,7.60
2008,03,22,14,00,7.60
2008,03,22,14,01,7.60
2008,03,22,14,02,7.70
2008,03,22,14,03,7.60
2008,03,22,14,04,7.50
2008,03,22,14,05,7.50
2008,03,22,14,06,7.40
2008,03,22,14,07,7.40
2008,03,22,14,08,7.40
2008,03,22,14,09,7.40
2008,03,22,14,10,7.50
2008,03,22,14,11,7.60
2008,03,22,14,12,7.60
2008,03,22,14,13,7.60
2008,03,22,14,14,7.60
2008,03,22,14,15,7.60
2008,03,22,14,16,7.50
2008,03,22,14,17,7.50
2008,03,22,14,18,7.40
2008,03,22,14,19,7.50
2008,03,22,14,20,7.60
2008,03,22,14,21,7.60
2008,03,22,14,22,7.50
2008,03,22,14,23,7.50
2008,03,22,14,24,7.40
2008,03,22,14,25,7.40
2008,03,22,14,26,7.30
2008,03,22,14,27,7.40
2008,03,22,14,28,7.40
2008,03,22,14,29,7.50
2008,03,22,14,30,7.50
2008,03,22,14,31,7.50
2008,03,22,14,32,7.60
2008,03,22,14,33,7.60
2008,03,22,14,34,7.50
2008,03,22,14,35,7.50
2008,03,22,14,36,7.50
2008,03,22,14,37,7.50
2008,03,22,14,38,7.50
2008,03,22,14,39,7.40
2008,03,22,14,40,7.40
2008,03,22,14,41,7.30
2008,03,22,14,42,7.40
2008,03,22,14,43,7.50
2008,03,22,14,44,7.60
2008,03,22,14,45,7.70
2008,03,22,14,46,7.70
2008,03,22,14,47,7.70
2008,03,22,14,48,7.70
2008,03,22,14,49,7.60
2008,03,22,14,50,7.60
2008,03,22,14,51,7.60
2008,03,22,14,52,7.60
2008,03,22,14,53,7.60
2008,03,22,14,54,7.70
2008,03,22,14,55,7.70
2008,03,22,14,56,7.70
2008,03,22,14,57,7.70
2008,03,22,14,58,7.70
2008,03,22,14,59,7.70
2008,03,22,15,00,7.70
2008,03,22,15,01,7.80
2008,03,22,15,02,7.90
2008,03,22,15,03,7.90
2008,03,22,15,04,7.90
2008,03,22,15,05,7.90
2008,03,22,15,06,7.90
2008,03,22,15,07,7.90
2008,03,22,15,08,8.00
2008,03,22,15,09,8.00
2008,03,22,15,10,8.10
2008,03,22,15,11,8.10
2008,03,22,15,12,8.10
2008,03,22,15,13,8.10
2008,03,22,15,14,8.10
2008,03,22,15,15,8.10
2008,03,22,15,16,8.10
2008,03,22,15,17,8.10
2008,03,22,15,18,8.10
2008,03,22,15,19,8.10
2008,03,22,15,20,8.20
2008,03,22,15,21,8.20
2008,03,22,15,22,8.20
2008,03,22,15,23,8.20
2008,03,22,15,24,8.20
2008,03,22,15,25,8.30
2008,03,22,15,26,8.30
2008,03,22,15,27,8.20
2008,03,22,15,28,8.20
2008,03,22,15,29,8.20
2008,03,22,15,30,8.20
2008,03,22,15,31,8.20
2008,03,22,15,32,8.20
2008,03,22,15,33,8.10
2008,03,22,15,34,8.10
2008,03,22,15,35,8.10
2008,03,22,15,36,8.20
2008,03,22,15,37,8.30
2008,03,22,15,38,8.40
2008,03,22,15,39,8.50
2008,03,22,15,40,8.50
2008,03,22,15,41,8.40
2008,03,22,15,42,8.40
2008,03,22,15,43,8.30
2008,03,22,15,44,8.30
2008,03,22,15,45,8.30
2008,03,22,15,46,8.30
2008,03,22,15,47,8.30
2008,03,22,15,48,8.20
2008,03,22,15,49,8.20
2008,03,22,15,50,8.20
2008,03,22,15,51,8.20
2008,03,22,15,52,8.20
2008,03,22,15,53,8.20
2008,03,22,15,54,8.20
2008,03,22,15,55,8.20
2008,03,22,15,56,8.20
2008,03,22,15,57,8.20
2008,03,22,15,58,8.20
2008,03,22,15,59,8.20
2008,03,22,16,00,8.30
2008,03,22,16,01,8.30
2008,03,22,16,02,8.30
2008,03,22,16,03,8.30
2008,03,22,16,04,8.30
2008,03,22,16,05,8.30
2008,03,22,16,06,8.30
2008,03,22,16,07,8.40
2008,03,22,16,08,8.40
2008,03,22,16,09,8.40
2008,03,22,16,10,8.40
2008,03,22,16,11,8.40
2008,03,22,16,12,8.40
2008,03,22,16,13,8.40
2008,03,22,16,14,8.40
2008,03,22,16,15,8.50
2008,03,22,16,16,8.50
2008,03,22,16,17,8.60
2008,03,22,16,18,8.70
2008,03,22,16,19,8.70
2008,03,22,16,20,8.70
2008,03,22,16,21,8.70
2008,03,22,16,22,8.70
2008,03,22,16,23,8.70
2008,03,22,16,24,8.70
2008,03,22,16,25,8.60
2008,03,22,16,26,8.60
2008,03,22,16,27,8.60
2008,03,22,16,28,8.60
2008,03,22,16,29,8.60
2008,03,22,16,30,8.60
2008,03,22,16,31,8.70
2008,03,22,16,32,8.70
2008,03,22,16,33,8.80
2008,03,22,16,34,8.80
2008,03,22,16,35,8.90
2008,03,22,16,36,8.90
2008,03,22,16,37,8.90
2008,03,22,16,38,8.90
2008,03,22,16,39,8.90
2008,03,22,16,40,8.90
2008,03,22,16,41,8.90
2008,03,22,16,42,9.00
2008,03,22,16,43,9.10
2008,03,22,16,44,9.10
2008,03,22,16,45,9.10
2008,03,22,16,46,9.00
2008,03,22,16,47,8.90
2008,03,22,16,48,8.90
2008,03,22,16,49,8.90
2008,03,22,16,50,8.90
2008,03,22,16,51,8.90
2008,03,22,16,52,8.90
2008,03,22,16,53,8.90
2008,03,22,16,54,8.90
2008,03,22,16,55,8.90
2008,03,22,16,56,8.80
2008,03,22,16,57,8.80
2008,03,22,16,58,8.80
2008,03,22,16,59,8.80
2008,03,22,17,00,8.80
2008,03,22,17,01,8.80
2008,03,22,17,02,8.80
2008,03,22,17,03,8.80
2008,03,22,17,04,8.80
2008,03,22,17,05,8.80
2008,03,22,17,06,8.80
2008,03,22,17,07,8.80
2008,03,22,17,08,8.80
2008,03,22,17,09,8.80
2008,03,22,17,10,8.80
2008,03,22,17,11,8.80
2008,03,22,17,12,8.80
2008,03,22,17,13,8.70
2008,03,22,17,14,8.70
2008,03,22,17,15,8.70
2008,03,22,17,16,8.70
2008,03,22,17,17,8.70
2008,03,22,17,18,8.70
2008,03,22,17,19,8.70
2008,03,22,17,20,8.70
2008,03,22,17,21,8.60
2008,03,22,17,22,8.60
2008,03,22,17,23,8.60
2008,03,22,17,24,8.60
2008,03,22,17,25,8.60
2008,03,22,17,26,8.60
2008,03,22,17,27,8.60
2008,03,22,17,28,8.60
2008,03,22,17,29,8.60
2008,03,22,17,30,8.60
2008,03,22,17,31,8.60
2008,03,22,17,32,8.60
2008,03,22,17,33,8.60
2008,03,22,17,34,8.60
2008,03,22,17,35,8.60
2008,03,22,17,36,8.60
2008,03,22,17,37,8.60
2008,03,22,17,38,8.50
2008,03,22,17,39,8.50
2008,03,22,17,40,8.50
2008,03,22,17,41,8.50
2008,03,22,17,42,8.50
2008,03,22,17,43,8.50
2008,03,22,17,44,8.40
2008,03,22,17,45,8.40
2008,03,22,17,46,8.40
2008,03,22,17,47,8.40
2008,03,22,17,48,8.40
2008,03,22,17,49,8.40
2008,03,22,17,50,8.40
2008,03,22,17,51,8.40
2008,03,22,17,52,8.40
2008,03,22,17,53,8.40
2008,03,22,17,54,8.40
2008,03,22,17,55,8.40
2008,03,22,17,56,8.40
2008,03,22,17,57,8.50
2008,03,22,17,58,8.50
2008,03,22,17,59,8.50
2008,03,22,18,00,8.50
2008,03,22,18,01,8.50
2008,03,22,18,02,8.50
2008,03,22,18,03,8.50
2008,03,22,18,04,8.50
2008,03,22,18,05,8.40
2008,03,22,18,06,8.50